Location: Unspecified
(48.8582°N, 2.2947°E)
Time: 22:33:12
(UTC+02:00)

ISS - Pass Details

Date: 27 March 2019
Orbit: 408 x 410 km, 51.6° (Epoch: 24 April)

Event Time Altitude Azimuth Distance (km) Brightness Sun altitude
Rises 21:43:39 0° 280° (W) 2,338 1.1 -23.7°
Reaches altitude 10° 21:45:47 10° 286° (WNW) 1,476 -0.1 -24.0°
Enters shadow 21:48:03 36° 311° (NW) 673 -2.2 -24.3°
